Time,TemperatureF,DewpointF,PressureIn,WindDirection,WindDirectionDegrees,WindSpeedMPH,WindSpeedGustMPH,Humidity,HourlyPrecipIn,Conditions,Clouds,dailyrainin,SolarRadiationWatts/m^2,SoftwareType,DateUTC
2013-03-24 00:00:00,56.8,54.1,30.02,South,171,0.0,2.0,91,0.00,,,0.00,0,HR-IXP-WINDi_r2_v1.2,2013-03-24 07:00:00,
2013-03-24 00:05:00,56.7,54.0,30.02,South,175,1.0,3.0,91,0.00,,,0.00,0,HR-IXP-WINDi_r2_v1.2,2013-03-24 07:05:00,
2013-03-24 00:10:00,56.8,54.1,30.02,South,175,0.0,3.0,91,0.00,,,0.00,0,HR-IXP-WINDi_r2_v1.2,2013-03-24 07:10:00,
2013-03-24 00:16:00,56.7,54.0,30.02,South,175,1.0,2.0,91,0.00,,,0.00,0,HR-IXP-WINDi_r2_v1.2,2013-03-24 07:16:00,
2013-03-24 00:21:00,56.7,54.0,30.03,South,175,0.0,2.0,91,0.00,,,0.00,0,HR-IXP-WINDi_r2_v1.2,2013-03-24 07:21:00,
2013-03-24 00:26:00,56.4,53.7,30.03,South,175,1.0,2.0,91,0.00,,,0.00,0,HR-IXP-WINDi_r2_v1.2,2013-03-24 07:26:00,
2013-03-24 00:31:00,56.3,53.9,30.03,South,175,0.0,2.0,92,0.00,,,0.00,0,HR-IXP-WINDi_r2_v1.2,2013-03-24 07:31:00,
2013-03-24 00:36:00,56.2,53.8,30.03,South,175,0.0,2.0,92,0.00,,,0.00,0,HR-IXP-WINDi_r2_v1.2,2013-03-24 07:36:00,
2013-03-24 00:41:00,56.4,54.0,30.03,South,175,0.0,2.0,92,0.00,,,0.00,0,HR-IXP-WINDi_r2_v1.2,2013-03-24 07:41:00,
2013-03-24 00:47:00,56.2,53.8,30.03,South,175,0.0,1.0,92,0.00,,,0.00,0,HR-IXP-WINDi_r2_v1.2,2013-03-24 07:47:00,
2013-03-24 00:52:00,56.1,53.7,30.03,South,175,0.0,1.0,92,0.00,,,0.00,0,HR-IXP-WINDi_r2_v1.2,2013-03-24 07:52:00,
2013-03-24 00:57:00,56.3,54.2,30.03,South,175,0.0,3.0,93,0.00,,,0.00,0,HR-IXP-WINDi_r2_v1.2,2013-03-24 07:57:00,
2013-03-24 01:02:00,56.5,54.4,30.03,South,175,2.0,3.0,93,0.00,,,0.00,0,HR-IXP-WINDi_r2_v1.2,2013-03-24 08:02:00,
2013-03-24 01:07:00,56.5,54.4,30.03,South,175,1.0,2.0,93,0.00,,,0.00,0,HR-IXP-WINDi_r2_v1.2,2013-03-24 08:07:00,
2013-03-24 01:13:00,56.4,54.3,30.02,South,175,0.0,2.0,93,0.00,,,0.00,0,HR-IXP-WINDi_r2_v1.2,2013-03-24 08:13:00,
2013-03-24 01:18:00,56.4,54.3,30.03,South,175,0.0,2.0,93,0.00,,,0.00,0,HR-IXP-WINDi_r2_v1.2,2013-03-24 08:18:00,
2013-03-24 01:23:00,56.4,54.3,30.03,South,175,1.0,2.0,93,0.00,,,0.00,0,HR-IXP-WINDi_r2_v1.2,2013-03-24 08:23:00,
2013-03-24 01:28:00,56.3,54.2,30.02,South,175,0.0,2.0,93,0.00,,,0.00,0,HR-IXP-WINDi_r2_v1.2,2013-03-24 08:28:00,
2013-03-24 01:33:00,56.4,54.3,30.03,South,175,0.0,1.0,93,0.00,,,0.00,0,HR-IXP-WINDi_r2_v1.2,2013-03-24 08:33:00,
2013-03-24 01:39:00,56.4,54.3,30.02,South,175,0.0,1.0,93,0.00,,,0.00,0,HR-IXP-WINDi_r2_v1.2,2013-03-24 08:39:00,
2013-03-24 01:44:00,56.4,54.3,30.02,South,175,0.0,1.0,93,0.00,,,0.00,0,HR-IXP-WINDi_r2_v1.2,2013-03-24 08:44:00,
2013-03-24 01:49:00,56.5,54.4,30.02,South,175,0.0,2.0,93,0.00,,,0.00,0,HR-IXP-WINDi_r2_v1.2,2013-03-24 08:49:00,
2013-03-24 01:54:00,56.6,54.5,30.02,South,175,0.0,2.0,93,0.00,,,0.00,0,HR-IXP-WINDi_r2_v1.2,2013-03-24 08:54:00,
2013-03-24 01:59:00,56.6,54.5,30.02,South,175,0.0,3.0,93,0.00,,,0.00,0,HR-IXP-WINDi_r2_v1.2,2013-03-24 08:59:00,
2013-03-24 02:04:00,56.6,54.5,30.02,South,175,0.0,3.0,93,0.00,,,0.00,0,HR-IXP-WINDi_r2_v1.2,2013-03-24 09:04:00,
2013-03-24 02:09:00,56.6,54.5,30.02,South,175,1.0,2.0,93,0.00,,,0.00,0,HR-IXP-WINDi_r2_v1.2,2013-03-24 09:09:00,
2013-03-24 02:14:00,56.4,54.3,30.02,SE,137,0.0,3.0,93,0.00,,,0.00,0,HR-IXP-WINDi_r2_v1.2,2013-03-24 09:14:00,
2013-03-24 02:19:00,56.4,54.3,30.02,SE,134,2.0,3.0,93,0.00,,,0.00,0,HR-IXP-WINDi_r2_v1.2,2013-03-24 09:19:00,
2013-03-24 02:24:00,56.4,54.3,30.02,SE,134,2.0,3.0,93,0.00,,,0.00,0,HR-IXP-WINDi_r2_v1.2,2013-03-24 09:24:00,
2013-03-24 02:29:00,56.4,54.3,30.02,SE,128,0.0,3.0,93,0.00,,,0.00,0,HR-IXP-WINDi_r2_v1.2,2013-03-24 09:29:00,
2013-03-24 02:35:00,56.4,54.3,30.02,SE,128,0.0,3.0,93,0.00,,,0.00,0,HR-IXP-WINDi_r2_v1.2,2013-03-24 09:35:00,
2013-03-24 02:40:00,56.4,54.3,30.02,SE,128,1.0,2.0,93,0.00,,,0.00,0,HR-IXP-WINDi_r2_v1.2,2013-03-24 09:40:00,
2013-03-24 02:45:00,56.4,54.3,30.02,SE,128,0.0,2.0,93,0.00,,,0.00,0,HR-IXP-WINDi_r2_v1.2,2013-03-24 09:45:00,
2013-03-24 02:50:00,56.5,54.4,30.02,ESE,121,0.0,3.0,93,0.00,,,0.00,0,HR-IXP-WINDi_r2_v1.2,2013-03-24 09:50:00,
2013-03-24 02:55:00,56.4,54.3,30.02,ESE,121,0.0,3.0,93,0.00,,,0.00,0,HR-IXP-WINDi_r2_v1.2,2013-03-24 09:55:00,
2013-03-24 03:00:00,56.5,54.4,30.01,ESE,121,1.0,2.0,93,0.00,,,0.00,0,HR-IXP-WINDi_r2_v1.2,2013-03-24 10:00:00,
2013-03-24 03:05:00,56.6,54.5,30.01,ESE,121,0.0,2.0,93,0.00,,,0.00,0,HR-IXP-WINDi_r2_v1.2,2013-03-24 10:05:00,
2013-03-24 03:11:00,56.6,54.2,30.01,ESE,120,0.0,3.0,92,0.00,,,0.00,0,HR-IXP-WINDi_r2_v1.2,2013-03-24 10:11:00,
2013-03-24 03:16:00,56.6,54.2,30.01,ESE,120,0.0,3.0,92,0.00,,,0.00,0,HR-IXP-WINDi_r2_v1.2,2013-03-24 10:16:00,
2013-03-24 03:21:00,56.6,54.2,30.01,ESE,120,1.0,3.0,92,0.00,,,0.00,0,HR-IXP-WINDi_r2_v1.2,2013-03-24 10:21:00,
2013-03-24 03:26:00,56.5,54.1,30.01,ESE,117,0.0,3.0,92,0.00,,,0.00,0,HR-IXP-WINDi_r2_v1.2,2013-03-24 10:26:00,
2013-03-24 03:32:00,56.4,54.0,30.01,ESE,117,0.0,3.0,92,0.00,,,0.00,0,HR-IXP-WINDi_r2_v1.2,2013-03-24 10:32:00,
2013-03-24 03:37:00,56.5,54.1,30.01,ESE,117,0.0,2.0,92,0.00,,,0.00,0,HR-IXP-WINDi_r2_v1.2,2013-03-24 10:37:00,
2013-03-24 03:42:00,56.5,54.1,30.01,SE,144,1.0,2.0,92,0.00,,,0.00,0,HR-IXP-WINDi_r2_v1.2,2013-03-24 10:42:00,
2013-03-24 03:47:00,56.5,54.1,30.01,SSE,165,1.0,3.0,92,0.00,,,0.00,0,HR-IXP-WINDi_r2_v1.2,2013-03-24 10:47:00,
2013-03-24 03:52:00,56.5,54.1,30.01,SSE,165,0.0,3.0,92,0.00,,,0.00,0,HR-IXP-WINDi_r2_v1.2,2013-03-24 10:52:00,
2013-03-24 03:57:00,56.5,54.1,30.01,SE,143,0.0,3.0,92,0.00,,,0.00,0,HR-IXP-WINDi_r2_v1.2,2013-03-24 10:57:00,
2013-03-24 04:02:00,56.5,54.1,30.01,SE,131,3.0,3.0,92,0.00,,,0.00,0,HR-IXP-WINDi_r2_v1.2,2013-03-24 11:02:00,
2013-03-24 04:08:00,56.5,54.1,30.01,SE,131,0.0,3.0,92,0.00,,,0.00,0,HR-IXP-WINDi_r2_v1.2,2013-03-24 11:08:00,
2013-03-24 04:13:00,56.6,54.2,30.01,SE,131,0.0,3.0,92,0.00,,,0.00,0,HR-IXP-WINDi_r2_v1.2,2013-03-24 11:13:00,
2013-03-24 04:18:00,56.7,54.3,30.01,SE,131,0.0,2.0,92,0.00,,,0.00,0,HR-IXP-WINDi_r2_v1.2,2013-03-24 11:18:00,
2013-03-24 04:23:00,56.7,54.0,30.01,SE,131,0.0,1.0,91,0.00,,,0.00,0,HR-IXP-WINDi_r2_v1.2,2013-03-24 11:23:00,
2013-03-24 04:28:00,56.6,53.9,30.01,SE,131,0.0,1.0,91,0.00,,,0.00,0,HR-IXP-WINDi_r2_v1.2,2013-03-24 11:28:00,
2013-03-24 04:33:00,56.6,53.9,30.01,SE,131,0.0,2.0,91,0.00,,,0.00,0,HR-IXP-WINDi_r2_v1.2,2013-03-24 11:33:00,
2013-03-24 04:38:00,56.6,53.9,30.01,SE,131,0.0,3.0,91,0.00,,,0.00,0,HR-IXP-WINDi_r2_v1.2,2013-03-24 11:38:00,
2013-03-24 04:44:00,56.5,53.8,30.01,SE,131,1.0,3.0,91,0.00,,,0.00,0,HR-IXP-WINDi_r2_v1.2,2013-03-24 11:44:00,
2013-03-24 04:49:00,56.4,53.7,30.01,SE,131,1.0,2.0,91,0.00,,,0.00,0,HR-IXP-WINDi_r2_v1.2,2013-03-24 11:49:00,
2013-03-24 04:54:00,56.4,53.7,30.01,SE,131,0.0,2.0,91,0.00,,,0.00,0,HR-IXP-WINDi_r2_v1.2,2013-03-24 11:54:00,
2013-03-24 04:59:00,56.4,53.7,30.01,SE,131,2.0,3.0,91,0.00,,,0.00,0,HR-IXP-WINDi_r2_v1.2,2013-03-24 11:59:00,
2013-03-24 05:04:00,56.4,53.7,30.01,ESE,121,0.0,3.0,91,0.00,,,0.00,0,HR-IXP-WINDi_r2_v1.2,2013-03-24 12:04:00,
2013-03-24 05:10:00,56.4,53.7,30.01,ESE,121,0.0,3.0,91,0.00,,,0.00,0,HR-IXP-WINDi_r2_v1.2,2013-03-24 12:10:00,
2013-03-24 05:15:00,56.3,53.6,30.01,ESE,121,2.0,2.0,91,0.00,,,0.00,0,HR-IXP-WINDi_r2_v1.2,2013-03-24 12:15:00,
2013-03-24 05:20:00,56.2,53.5,30.01,ESE,121,1.0,2.0,91,0.00,,,0.00,0,HR-IXP-WINDi_r2_v1.2,2013-03-24 12:20:00,
2013-03-24 05:25:00,56.2,53.5,30.02,ESE,121,0.0,2.0,91,0.00,,,0.00,0,HR-IXP-WINDi_r2_v1.2,2013-03-24 12:25:00,
2013-03-24 05:31:00,56.3,53.6,30.02,South,169,0.0,3.0,91,0.00,,,0.00,0,HR-IXP-WINDi_r2_v1.2,2013-03-24 12:31:00,
2013-03-24 05:36:00,56.4,53.7,30.02,South,169,1.0,3.0,91,0.00,,,0.00,0,HR-IXP-WINDi_r2_v1.2,2013-03-24 12:36:00,
2013-03-24 05:41:00,56.4,53.7,30.02,South,175,0.0,3.0,91,0.00,,,0.00,0,HR-IXP-WINDi_r2_v1.2,2013-03-24 12:41:00,
2013-03-24 05:46:00,56.4,53.7,30.02,South,175,0.0,3.0,91,0.00,,,0.00,0,HR-IXP-WINDi_r2_v1.2,2013-03-24 12:46:00,
2013-03-24 05:51:00,56.3,53.6,30.02,SSW,200,2.0,4.0,91,0.00,,,0.00,0,HR-IXP-WINDi_r2_v1.2,2013-03-24 12:51:00,
2013-03-24 05:56:00,56.3,53.3,30.02,SSW,200,1.0,4.0,90,0.00,,,0.00,0,HR-IXP-WINDi_r2_v1.2,2013-03-24 12:56:00,
2013-03-24 06:02:00,56.3,53.3,30.02,SSW,200,0.0,3.0,90,0.00,,,0.00,0,HR-IXP-WINDi_r2_v1.2,2013-03-24 13:02:00,
2013-03-24 06:07:00,56.3,53.3,30.02,SSW,200,2.0,3.0,90,0.00,,,0.00,0,HR-IXP-WINDi_r2_v1.2,2013-03-24 13:07:00,
2013-03-24 06:12:00,56.3,53.3,30.02,SSW,198,0.0,3.0,90,0.00,,,0.00,0,HR-IXP-WINDi_r2_v1.2,2013-03-24 13:12:00,
2013-03-24 06:17:00,56.2,53.2,30.02,SSW,198,0.0,3.0,90,0.00,,,0.00,0,HR-IXP-WINDi_r2_v1.2,2013-03-24 13:17:00,
2013-03-24 06:22:00,56.2,53.2,30.02,SSW,198,0.0,2.0,90,0.00,,,0.00,0,HR-IXP-WINDi_r2_v1.2,2013-03-24 13:22:00,
2013-03-24 06:27:00,56.3,53.3,30.02,SSE,161,3.0,3.0,90,0.00,,,0.00,0,HR-IXP-WINDi_r2_v1.2,2013-03-24 13:27:00,
2013-03-24 06:33:00,56.2,53.2,30.02,SSE,161,0.0,4.0,90,0.00,,,0.00,0,HR-IXP-WINDi_r2_v1.2,2013-03-24 13:33:00,
2013-03-24 06:38:00,56.2,53.2,30.02,SSE,161,1.0,4.0,90,0.00,,,0.00,0,HR-IXP-WINDi_r2_v1.2,2013-03-24 13:38:00,
2013-03-24 06:43:00,56.2,53.2,30.02,SE,138,2.0,3.0,90,0.00,,,0.00,0,HR-IXP-WINDi_r2_v1.2,2013-03-24 13:43:00,
2013-03-24 06:48:00,56.2,53.2,30.02,SE,138,0.0,3.0,90,0.00,,,0.00,0,HR-IXP-WINDi_r2_v1.2,2013-03-24 13:48:00,
2013-03-24 06:53:00,56.2,53.2,30.02,SE,138,0.0,3.0,90,0.00,,,0.00,0,HR-IXP-WINDi_r2_v1.2,2013-03-24 13:53:00,
2013-03-24 06:58:00,56.3,53.3,30.02,SE,138,0.0,1.0,90,0.00,,,0.00,0,HR-IXP-WINDi_r2_v1.2,2013-03-24 13:58:00,
2013-03-24 07:04:00,56.3,53.3,30.02,SE,138,0.0,1.0,90,0.00,,,0.00,0,HR-IXP-WINDi_r2_v1.2,2013-03-24 14:04:00,
2013-03-24 07:09:00,56.4,53.4,30.02,SE,138,0.0,2.0,90,0.00,,,0.00,5,HR-IXP-WINDi_r2_v1.2,2013-03-24 14:09:00,
2013-03-24 07:14:00,56.3,53.3,30.03,SE,138,0.0,2.0,90,0.00,,,0.00,11,HR-IXP-WINDi_r2_v1.2,2013-03-24 14:14:00,
2013-03-24 07:19:00,56.3,53.3,30.03,SE,138,0.0,1.0,90,0.00,,,0.00,12,HR-IXP-WINDi_r2_v1.2,2013-03-24 14:19:00,
2013-03-24 07:24:00,56.3,53.3,30.03,SE,138,0.0,3.0,90,0.00,,,0.00,16,HR-IXP-WINDi_r2_v1.2,2013-03-24 14:24:00,
2013-03-24 07:30:00,56.4,53.4,30.03,SE,138,1.0,3.0,90,0.00,,,0.00,21,HR-IXP-WINDi_r2_v1.2,2013-03-24 14:30:00,
2013-03-24 07:35:00,56.4,53.4,30.03,SE,138,0.0,2.0,90,0.00,,,0.00,28,HR-IXP-WINDi_r2_v1.2,2013-03-24 14:35:00,
2013-03-24 07:40:00,56.5,53.5,30.03,SE,138,0.0,2.0,90,0.00,,,0.00,35,HR-IXP-WINDi_r2_v1.2,2013-03-24 14:40:00,
2013-03-24 07:45:00,56.6,53.3,30.03,SE,135,1.0,3.0,89,0.00,,,0.00,37,HR-IXP-WINDi_r2_v1.2,2013-03-24 14:45:00,
2013-03-24 07:51:00,56.7,53.7,30.03,SE,130,1.0,3.0,90,0.00,,,0.00,42,HR-IXP-WINDi_r2_v1.2,2013-03-24 14:51:00,
2013-03-24 07:56:00,56.8,53.5,30.03,ENE,61,1.0,5.0,89,0.00,,,0.00,42,HR-IXP-WINDi_r2_v1.2,2013-03-24 14:56:00,
2013-03-24 08:02:00,56.8,53.5,30.03,NE,46,0.0,5.0,89,0.00,,,0.00,54,HR-IXP-WINDi_r2_v1.2,2013-03-24 15:02:00,
2013-03-24 08:07:00,56.7,53.4,30.03,NE,46,0.0,5.0,89,0.00,,,0.00,62,HR-IXP-WINDi_r2_v1.2,2013-03-24 15:07:00,
2013-03-24 08:12:00,56.8,53.5,30.03,NE,51,2.0,3.0,89,0.00,,,0.00,76,HR-IXP-WINDi_r2_v1.2,2013-03-24 15:12:00,
2013-03-24 08:17:00,56.7,53.4,30.03,NE,51,1.0,3.0,89,0.00,,,0.00,100,HR-IXP-WINDi_r2_v1.2,2013-03-24 15:17:00,
2013-03-24 08:22:00,56.9,53.3,30.04,East,92,0.0,2.0,88,0.00,,,0.00,114,HR-IXP-WINDi_r2_v1.2,2013-03-24 15:22:00,
2013-03-24 08:28:00,57.3,54.0,30.04,East,92,0.0,2.0,89,0.00,,,0.00,125,HR-IXP-WINDi_r2_v1.2,2013-03-24 15:28:00,
2013-03-24 08:33:00,57.5,53.6,30.04,East,94,2.0,2.0,87,0.00,,,0.00,134,HR-IXP-WINDi_r2_v1.2,2013-03-24 15:33:00,
2013-03-24 08:38:00,57.8,53.9,30.04,ESE,104,1.0,3.0,87,0.00,,,0.00,148,HR-IXP-WINDi_r2_v1.2,2013-03-24 15:38:00,
2013-03-24 08:43:00,58.2,53.6,30.04,ESE,104,0.0,3.0,85,0.00,,,0.00,171,HR-IXP-WINDi_r2_v1.2,2013-03-24 15:43:00,
2013-03-24 08:48:00,58.8,54.6,30.04,NE,46,2.0,4.0,86,0.00,,,0.00,158,HR-IXP-WINDi_r2_v1.2,2013-03-24 15:48:00,
2013-03-24 08:53:00,58.6,53.7,30.04,NE,53,2.0,4.0,84,0.00,,,0.00,151,HR-IXP-WINDi_r2_v1.2,2013-03-24 15:53:00,
2013-03-24 08:58:00,58.5,53.9,30.05,NE,51,0.0,4.0,85,0.00,,,0.00,156,HR-IXP-WINDi_r2_v1.2,2013-03-24 15:58:00,
2013-03-24 09:03:00,58.7,54.1,30.05,NE,51,0.0,3.0,85,0.00,,,0.00,178,HR-IXP-WINDi_r2_v1.2,2013-03-24 16:03:00,
2013-03-24 09:08:00,59.2,54.3,30.05,NE,51,2.0,3.0,84,0.00,,,0.00,167,HR-IXP-WINDi_r2_v1.2,2013-03-24 16:08:00,
2013-03-24 09:13:00,58.6,53.7,30.05,NE,51,1.0,3.0,84,0.00,,,0.00,304,HR-IXP-WINDi_r2_v1.2,2013-03-24 16:13:00,
2013-03-24 09:18:00,59.3,54.1,30.05,North,350,2.0,3.0,83,0.00,,,0.00,446,HR-IXP-WINDi_r2_v1.2,2013-03-24 16:18:00,
2013-03-24 09:23:00,59.3,54.1,30.05,WNW,299,3.0,3.0,83,0.00,,,0.00,476,HR-IXP-WINDi_r2_v1.2,2013-03-24 16:23:00,
2013-03-24 09:29:00,59.7,54.1,30.04,NE,34,0.0,3.0,82,0.00,,,0.00,448,HR-IXP-WINDi_r2_v1.2,2013-03-24 16:29:00,
2013-03-24 09:34:00,60.2,54.3,30.04,NW,324,3.0,4.0,81,0.00,,,0.00,445,HR-IXP-WINDi_r2_v1.2,2013-03-24 16:34:00,
2013-03-24 09:39:00,60.1,54.2,30.04,NNE,20,2.0,6.0,81,0.00,,,0.00,459,HR-IXP-WINDi_r2_v1.2,2013-03-24 16:39:00,
2013-03-24 09:44:00,60.4,54.5,30.04,NNW,348,2.0,6.0,81,0.00,,,0.00,476,HR-IXP-WINDi_r2_v1.2,2013-03-24 16:44:00,
2013-03-24 09:49:00,59.8,53.9,30.04,NNW,347,0.0,4.0,81,0.00,,,0.00,485,HR-IXP-WINDi_r2_v1.2,2013-03-24 16:49:00,
2013-03-24 09:55:00,60.4,54.1,30.04,NNW,339,0.0,3.0,80,0.00,,,0.00,501,HR-IXP-WINDi_r2_v1.2,2013-03-24 16:55:00,
2013-03-24 10:00:00,60.9,54.6,30.04,NW,311,2.0,4.0,80,0.00,,,0.00,519,HR-IXP-WINDi_r2_v1.2,2013-03-24 17:00:00,
2013-03-24 10:05:00,60.7,54.8,30.04,NW,313,0.0,4.0,81,0.00,,,0.00,534,HR-IXP-WINDi_r2_v1.2,2013-03-24 17:05:00,
2013-03-24 10:10:00,62.1,55.8,30.04,NNE,17,1.0,4.0,80,0.00,,,0.00,543,HR-IXP-WINDi_r2_v1.2,2013-03-24 17:10:00,
2013-03-24 10:15:00,65.7,57.5,30.04,NNE,19,1.0,4.0,75,0.00,,,0.00,566,HR-IXP-WINDi_r2_v1.2,2013-03-24 17:15:00,
2013-03-24 10:20:00,64.8,55.5,30.04,North,5,2.0,2.0,72,0.00,,,0.00,584,HR-IXP-WINDi_r2_v1.2,2013-03-24 17:20:00,
2013-03-24 10:26:00,63.3,54.8,30.04,NW,311,2.0,4.0,74,0.00,,,0.00,591,HR-IXP-WINDi_r2_v1.2,2013-03-24 17:26:00,
2013-03-24 10:31:00,63.5,56.1,30.03,NW,311,1.0,4.0,77,0.00,,,0.00,606,HR-IXP-WINDi_r2_v1.2,2013-03-24 17:31:00,
2013-03-24 10:36:00,63.6,55.5,30.03,WSW,252,2.0,5.0,75,0.00,,,0.00,617,HR-IXP-WINDi_r2_v1.2,2013-03-24 17:36:00,
2013-03-24 10:41:00,64.5,56.0,30.03,North,355,3.0,5.0,74,0.00,,,0.00,629,HR-IXP-WINDi_r2_v1.2,2013-03-24 17:41:00,
2013-03-24 10:46:00,64.8,55.9,30.03,NNW,341,2.0,5.0,73,0.00,,,0.00,638,HR-IXP-WINDi_r2_v1.2,2013-03-24 17:46:00,
2013-03-24 10:51:00,64.1,55.2,30.03,WNW,286,2.0,5.0,73,0.00,,,0.00,656,HR-IXP-WINDi_r2_v1.2,2013-03-24 17:51:00,
2013-03-24 10:57:00,64.1,55.2,30.03,NNW,334,1.0,4.0,73,0.00,,,0.00,666,HR-IXP-WINDi_r2_v1.2,2013-03-24 17:57:00,
2013-03-24 11:02:00,64.5,55.2,30.02,NNW,331,2.0,4.0,72,0.00,,,0.00,677,HR-IXP-WINDi_r2_v1.2,2013-03-24 18:02:00,
2013-03-24 11:07:00,64.7,55.4,30.02,West,275,3.0,5.0,72,0.00,,,0.00,682,HR-IXP-WINDi_r2_v1.2,2013-03-24 18:07:00,
2013-03-24 11:12:00,64.2,54.9,30.02,SW,231,2.0,5.0,72,0.00,,,0.00,694,HR-IXP-WINDi_r2_v1.2,2013-03-24 18:12:00,
2013-03-24 11:18:00,66.1,56.8,30.02,SW,230,1.0,3.0,72,0.00,,,0.00,705,HR-IXP-WINDi_r2_v1.2,2013-03-24 18:18:00,
2013-03-24 11:23:00,67.9,56.5,30.02,SSW,203,2.0,4.0,67,0.00,,,0.00,714,HR-IXP-WINDi_r2_v1.2,2013-03-24 18:23:00,
2013-03-24 11:28:00,68.6,56.3,30.01,South,171,0.0,4.0,65,0.00,,,0.00,724,HR-IXP-WINDi_r2_v1.2,2013-03-24 18:28:00,
2013-03-24 11:33:00,67.2,55.4,30.01,SW,232,2.0,4.0,66,0.00,,,0.00,733,HR-IXP-WINDi_r2_v1.2,2013-03-24 18:33:00,
2013-03-24 11:38:00,66.7,54.9,30.01,WSW,239,0.0,4.0,66,0.00,,,0.00,744,HR-IXP-WINDi_r2_v1.2,2013-03-24 18:38:00,
2013-03-24 11:44:00,68.4,55.3,30.01,SW,229,2.0,4.0,63,0.00,,,0.00,744,HR-IXP-WINDi_r2_v1.2,2013-03-24 18:44:00,
2013-03-24 11:49:00,70.4,56.7,30.01,SW,217,0.0,4.0,62,0.00,,,0.00,752,HR-IXP-WINDi_r2_v1.2,2013-03-24 18:49:00,
2013-03-24 11:54:00,69.5,56.3,30.01,SW,217,2.0,3.0,63,0.00,,,0.00,759,HR-IXP-WINDi_r2_v1.2,2013-03-24 18:54:00,
2013-03-24 11:59:00,74.5,59.2,30.01,SSE,150,3.0,4.0,59,0.00,,,0.00,768,HR-IXP-WINDi_r2_v1.2,2013-03-24 18:59:00,
2013-03-24 12:04:00,71.5,55.9,30.01,North,5,0.0,4.0,58,0.00,,,0.00,770,HR-IXP-WINDi_r2_v1.2,2013-03-24 19:04:00,
2013-03-24 12:09:00,71.2,55.6,30.00,WSW,246,2.0,4.0,58,0.00,,,0.00,784,HR-IXP-WINDi_r2_v1.2,2013-03-24 19:09:00,
2013-03-24 12:14:00,69.5,55.0,30.00,SW,220,6.0,7.0,60,0.00,,,0.00,791,HR-IXP-WINDi_r2_v1.2,2013-03-24 19:14:00,
2013-03-24 12:20:00,69.3,53.8,30.00,WSW,252,1.0,7.0,58,0.00,,,0.00,793,HR-IXP-WINDi_r2_v1.2,2013-03-24 19:20:00,
2013-03-24 12:25:00,70.2,54.2,30.00,West,279,3.0,6.0,57,0.00,,,0.00,793,HR-IXP-WINDi_r2_v1.2,2013-03-24 19:25:00,
2013-03-24 12:30:00,70.1,54.6,30.00,West,279,0.0,4.0,58,0.00,,,0.00,798,HR-IXP-WINDi_r2_v1.2,2013-03-24 19:30:00,
2013-03-24 12:35:00,70.0,54.0,29.99,West,269,1.0,7.0,57,0.00,,,0.00,803,HR-IXP-WINDi_r2_v1.2,2013-03-24 19:35:00,
2013-03-24 12:41:00,71.2,54.6,29.99,SW,220,0.0,7.0,56,0.00,,,0.00,802,HR-IXP-WINDi_r2_v1.2,2013-03-24 19:41:00,
2013-03-24 12:46:00,73.2,55.5,29.99,SW,226,4.0,5.0,54,0.00,,,0.00,800,HR-IXP-WINDi_r2_v1.2,2013-03-24 19:46:00,
2013-03-24 12:51:00,71.3,55.7,29.99,SSW,203,2.0,7.0,58,0.00,,,0.00,809,HR-IXP-WINDi_r2_v1.2,2013-03-24 19:51:00,
2013-03-24 12:56:00,72.1,57.4,29.98,SSE,148,6.0,7.0,60,0.00,,,0.00,807,HR-IXP-WINDi_r2_v1.2,2013-03-24 19:56:00,
2013-03-24 13:01:00,72.5,56.8,29.98,WSW,242,2.0,8.0,58,0.00,,,0.00,800,HR-IXP-WINDi_r2_v1.2,2013-03-24 20:01:00,
2013-03-24 13:06:00,71.3,57.1,29.98,SSW,192,2.0,8.0,61,0.00,,,0.00,807,HR-IXP-WINDi_r2_v1.2,2013-03-24 20:06:00,
2013-03-24 13:11:00,71.0,56.8,29.97,WSW,239,3.0,10.0,61,0.00,,,0.00,807,HR-IXP-WINDi_r2_v1.2,2013-03-24 20:11:00,
2013-03-24 13:16:00,70.6,56.9,29.97,SW,234,4.0,10.0,62,0.00,,,0.00,807,HR-IXP-WINDi_r2_v1.2,2013-03-24 20:16:00,
2013-03-24 13:21:00,70.1,56.4,29.97,SSW,211,5.0,9.0,62,0.00,,,0.00,807,HR-IXP-WINDi_r2_v1.2,2013-03-24 20:21:00,
2013-03-24 13:27:00,70.3,57.1,29.97,SW,219,5.0,9.0,63,0.00,,,0.00,802,HR-IXP-WINDi_r2_v1.2,2013-03-24 20:27:00,
2013-03-24 13:32:00,71.5,56.8,29.97,SSW,209,2.0,9.0,60,0.00,,,0.00,807,HR-IXP-WINDi_r2_v1.2,2013-03-24 20:32:00,
2013-03-24 13:38:00,71.5,56.4,29.97,South,171,3.0,7.0,59,0.00,,,0.00,798,HR-IXP-WINDi_r2_v1.2,2013-03-24 20:38:00,
2013-03-24 13:43:00,72.5,55.9,29.96,SSW,207,6.0,8.0,56,0.00,,,0.00,798,HR-IXP-WINDi_r2_v1.2,2013-03-24 20:43:00,
2013-03-24 13:48:00,71.3,56.6,29.96,SW,215,6.0,9.0,60,0.00,,,0.00,793,HR-IXP-WINDi_r2_v1.2,2013-03-24 20:48:00,
2013-03-24 13:53:00,71.4,56.3,29.96,SW,229,4.0,9.0,59,0.00,,,0.00,789,HR-IXP-WINDi_r2_v1.2,2013-03-24 20:53:00,
2013-03-24 13:58:00,71.0,55.9,29.96,WSW,258,4.0,9.0,59,0.00,,,0.00,770,HR-IXP-WINDi_r2_v1.2,2013-03-24 20:58:00,
2013-03-24 14:03:00,70.6,55.1,29.96,WSW,242,7.0,9.0,58,0.00,,,0.00,770,HR-IXP-WINDi_r2_v1.2,2013-03-24 21:03:00,
2013-03-24 14:08:00,70.9,55.3,29.95,SW,224,9.0,9.0,58,0.00,,,0.00,768,HR-IXP-WINDi_r2_v1.2,2013-03-24 21:08:00,
2013-03-24 14:14:00,71.5,56.4,29.95,WSW,247,4.0,10.0,59,0.00,,,0.00,763,HR-IXP-WINDi_r2_v1.2,2013-03-24 21:14:00,
2013-03-24 14:19:00,72.8,57.1,29.95,West,265,4.0,9.0,58,0.00,,,0.00,759,HR-IXP-WINDi_r2_v1.2,2013-03-24 21:19:00,
2013-03-24 14:24:00,72.5,56.3,29.95,SW,226,5.0,10.0,57,0.00,,,0.00,752,HR-IXP-WINDi_r2_v1.2,2013-03-24 21:24:00,
2013-03-24 14:30:00,72.1,56.9,29.95,SW,215,4.0,10.0,59,0.00,,,0.00,738,HR-IXP-WINDi_r2_v1.2,2013-03-24 21:30:00,
2013-03-24 14:35:00,71.9,56.7,29.94,SSE,163,5.0,10.0,59,0.00,,,0.00,737,HR-IXP-WINDi_r2_v1.2,2013-03-24 21:35:00,
2013-03-24 14:40:00,72.1,56.5,29.94,SSW,194,5.0,11.0,58,0.00,,,0.00,729,HR-IXP-WINDi_r2_v1.2,2013-03-24 21:40:00,
2013-03-24 14:45:00,72.2,56.6,29.94,SSW,195,6.0,11.0,58,0.00,,,0.00,717,HR-IXP-WINDi_r2_v1.2,2013-03-24 21:45:00,
2013-03-24 14:51:00,71.5,55.4,29.94,WSW,238,6.0,12.0,57,0.00,,,0.00,708,HR-IXP-WINDi_r2_v1.2,2013-03-24 21:51:00,
2013-03-24 14:56:00,70.8,55.7,29.94,South,175,8.0,12.0,59,0.00,,,0.00,703,HR-IXP-WINDi_r2_v1.2,2013-03-24 21:56:00,
2013-03-24 15:01:00,71.2,55.1,29.94,SW,235,5.0,12.0,57,0.00,,,0.00,693,HR-IXP-WINDi_r2_v1.2,2013-03-24 22:01:00,
2013-03-24 15:06:00,70.8,55.2,29.94,SW,220,7.0,10.0,58,0.00,,,0.00,684,HR-IXP-WINDi_r2_v1.2,2013-03-24 22:06:00,
2013-03-24 15:12:00,70.1,55.1,29.94,SSW,207,5.0,9.0,59,0.00,,,0.00,673,HR-IXP-WINDi_r2_v1.2,2013-03-24 22:12:00,
2013-03-24 15:17:00,69.2,55.1,29.94,SSW,199,5.0,12.0,61,0.00,,,0.00,664,HR-IXP-WINDi_r2_v1.2,2013-03-24 22:17:00,
2013-03-24 15:22:00,69.2,56.0,29.93,South,171,6.0,12.0,63,0.00,,,0.00,649,HR-IXP-WINDi_r2_v1.2,2013-03-24 22:22:00,
2013-03-24 15:28:00,68.6,55.4,29.94,South,188,6.0,14.0,63,0.00,,,0.00,640,HR-IXP-WINDi_r2_v1.2,2013-03-24 22:28:00,
2013-03-24 15:33:00,69.9,57.1,29.93,SW,227,8.0,14.0,64,0.00,,,0.00,612,HR-IXP-WINDi_r2_v1.2,2013-03-24 22:33:00,
2013-03-24 15:38:00,69.9,56.2,29.93,SW,223,6.0,11.0,62,0.00,,,0.00,603,HR-IXP-WINDi_r2_v1.2,2013-03-24 22:38:00,
2013-03-24 15:43:00,68.7,55.5,29.93,SW,231,9.0,14.0,63,0.00,,,0.00,571,HR-IXP-WINDi_r2_v1.2,2013-03-24 22:43:00,
2013-03-24 15:49:00,68.3,55.6,29.93,WSW,247,4.0,14.0,64,0.00,,,0.00,468,HR-IXP-WINDi_r2_v1.2,2013-03-24 22:49:00,
2013-03-24 15:54:00,68.4,56.1,29.93,WSW,247,5.0,11.0,65,0.00,,,0.00,388,HR-IXP-WINDi_r2_v1.2,2013-03-24 22:54:00,
2013-03-24 16:00:00,68.3,55.6,29.93,SW,225,6.0,12.0,64,0.00,,,0.00,373,HR-IXP-WINDi_r2_v1.2,2013-03-24 23:00:00,
2013-03-24 16:05:00,68.1,55.8,29.93,South,170,3.0,12.0,65,0.00,,,0.00,392,HR-IXP-WINDi_r2_v1.2,2013-03-24 23:05:00,
2013-03-24 16:10:00,68.7,55.5,29.93,South,184,8.0,10.0,63,0.00,,,0.00,392,HR-IXP-WINDi_r2_v1.2,2013-03-24 23:10:00,
2013-03-24 16:15:00,68.8,55.2,29.92,SW,219,6.0,9.0,62,0.00,,,0.00,425,HR-IXP-WINDi_r2_v1.2,2013-03-24 23:15:00,
2013-03-24 16:20:00,69.5,55.9,29.92,SSE,157,5.0,9.0,62,0.00,,,0.00,434,HR-IXP-WINDi_r2_v1.2,2013-03-24 23:20:00,
2013-03-24 16:26:00,70.3,56.2,29.92,SSW,209,4.0,9.0,61,0.00,,,0.00,443,HR-IXP-WINDi_r2_v1.2,2013-03-24 23:26:00,
2013-03-24 16:31:00,70.9,55.8,29.92,SW,227,5.0,9.0,59,0.00,,,0.00,446,HR-IXP-WINDi_r2_v1.2,2013-03-24 23:31:00,
2013-03-24 16:36:00,69.7,55.1,29.92,SSW,209,5.0,8.0,60,0.00,,,0.00,443,HR-IXP-WINDi_r2_v1.2,2013-03-24 23:36:00,
2013-03-24 16:41:00,70.0,56.8,29.92,SW,232,3.0,8.0,63,0.00,,,0.00,439,HR-IXP-WINDi_r2_v1.2,2013-03-24 23:41:00,
2013-03-24 16:47:00,71.6,57.4,29.91,SSE,157,6.0,7.0,61,0.00,,,0.00,424,HR-IXP-WINDi_r2_v1.2,2013-03-24 23:47:00,
2013-03-24 16:52:00,71.3,56.2,29.91,SW,215,4.0,7.0,59,0.00,,,0.00,345,HR-IXP-WINDi_r2_v1.2,2013-03-24 23:52:00,
2013-03-24 16:57:00,72.4,56.3,29.91,SSW,194,3.0,7.0,57,0.00,,,0.00,383,HR-IXP-WINDi_r2_v1.2,2013-03-24 23:57:00,
2013-03-24 17:02:00,71.9,56.3,29.91,South,190,2.0,7.0,58,0.00,,,0.00,359,HR-IXP-WINDi_r2_v1.2,2013-03-25 00:02:00,
2013-03-24 17:07:00,72.0,57.8,29.91,West,261,3.0,7.0,61,0.00,,,0.00,329,HR-IXP-WINDi_r2_v1.2,2013-03-25 00:07:00,
2013-03-24 17:13:00,72.0,55.9,29.91,WSW,250,5.0,8.0,57,0.00,,,0.00,309,HR-IXP-WINDi_r2_v1.2,2013-03-25 00:13:00,
2013-03-24 17:18:00,71.5,55.4,29.91,West,271,2.0,8.0,57,0.00,,,0.00,304,HR-IXP-WINDi_r2_v1.2,2013-03-25 00:18:00,
2013-03-24 17:23:00,71.0,54.9,29.91,West,278,3.0,8.0,57,0.00,,,0.00,287,HR-IXP-WINDi_r2_v1.2,2013-03-25 00:23:00,
2013-03-24 17:28:00,70.9,54.9,29.91,West,281,4.0,8.0,57,0.00,,,0.00,267,HR-IXP-WINDi_r2_v1.2,2013-03-25 00:28:00,
2013-03-24 17:33:00,70.7,54.7,29.91,West,280,2.0,8.0,57,0.00,,,0.00,250,HR-IXP-WINDi_r2_v1.2,2013-03-25 00:33:00,
2013-03-24 17:39:00,69.7,54.2,29.91,WNW,288,3.0,8.0,58,0.00,,,0.00,225,HR-IXP-WINDi_r2_v1.2,2013-03-25 00:39:00,
2013-03-24 17:44:00,69.6,54.1,29.91,WNW,287,3.0,8.0,58,0.00,,,0.00,209,HR-IXP-WINDi_r2_v1.2,2013-03-25 00:44:00,
2013-03-24 17:49:00,69.9,53.9,29.91,West,274,4.0,8.0,57,0.00,,,0.00,193,HR-IXP-WINDi_r2_v1.2,2013-03-25 00:49:00,
2013-03-24 17:54:00,69.9,53.4,29.91,West,275,2.0,8.0,56,0.00,,,0.00,176,HR-IXP-WINDi_r2_v1.2,2013-03-25 00:54:00,
2013-03-24 18:00:00,69.9,52.9,29.91,WNW,288,2.0,6.0,55,0.00,,,0.00,160,HR-IXP-WINDi_r2_v1.2,2013-03-25 01:00:00,
2013-03-24 18:05:00,69.8,52.4,29.91,WSW,254,2.0,7.0,54,0.00,,,0.00,109,HR-IXP-WINDi_r2_v1.2,2013-03-25 01:05:00,
2013-03-24 18:10:00,69.5,51.6,29.91,WNW,282,5.0,8.0,53,0.00,,,0.00,128,HR-IXP-WINDi_r2_v1.2,2013-03-25 01:10:00,
2013-03-24 18:15:00,69.2,51.8,29.91,WSW,248,2.0,8.0,54,0.00,,,0.00,113,HR-IXP-WINDi_r2_v1.2,2013-03-25 01:15:00,
2013-03-24 18:20:00,69.3,50.9,29.91,West,278,5.0,7.0,52,0.00,,,0.00,97,HR-IXP-WINDi_r2_v1.2,2013-03-25 01:20:00,
2013-03-24 18:26:00,68.9,50.0,29.90,West,259,4.0,8.0,51,0.00,,,0.00,81,HR-IXP-WINDi_r2_v1.2,2013-03-25 01:26:00,
2013-03-24 18:31:00,68.8,50.9,29.91,West,276,5.0,8.0,53,0.00,,,0.00,67,HR-IXP-WINDi_r2_v1.2,2013-03-25 01:31:00,
2013-03-24 18:36:00,68.7,51.3,29.91,WNW,294,3.0,7.0,54,0.00,,,0.00,53,HR-IXP-WINDi_r2_v1.2,2013-03-25 01:36:00,
2013-03-24 18:41:00,68.6,52.2,29.91,WNW,290,2.0,6.0,56,0.00,,,0.00,39,HR-IXP-WINDi_r2_v1.2,2013-03-25 01:41:00,
2013-03-24 18:46:00,68.2,51.4,29.91,West,278,2.0,5.0,55,0.00,,,0.00,28,HR-IXP-WINDi_r2_v1.2,2013-03-25 01:46:00,
2013-03-24 18:51:00,68.0,51.7,29.91,West,264,2.0,5.0,56,0.00,,,0.00,19,HR-IXP-WINDi_r2_v1.2,2013-03-25 01:51:00,
2013-03-24 18:56:00,67.7,51.4,29.91,WSW,254,4.0,6.0,56,0.00,,,0.00,12,HR-IXP-WINDi_r2_v1.2,2013-03-25 01:56:00,
2013-03-24 19:01:00,67.3,51.5,29.91,WNW,285,2.0,6.0,57,0.00,,,0.00,9,HR-IXP-WINDi_r2_v1.2,2013-03-25 02:01:00,
2013-03-24 19:07:00,66.8,51.5,29.91,WNW,285,1.0,5.0,58,0.00,,,0.00,5,HR-IXP-WINDi_r2_v1.2,2013-03-25 02:07:00,
2013-03-24 19:12:00,66.5,51.2,29.92,West,274,4.0,5.0,58,0.00,,,0.00,0,HR-IXP-WINDi_r2_v1.2,2013-03-25 02:12:00,
2013-03-24 19:17:00,66.1,51.8,29.91,West,271,1.0,5.0,60,0.00,,,0.00,0,HR-IXP-WINDi_r2_v1.2,2013-03-25 02:17:00,
2013-03-24 19:22:00,65.8,52.4,29.91,West,259,1.0,5.0,62,0.00,,,0.00,0,HR-IXP-WINDi_r2_v1.2,2013-03-25 02:22:00,
2013-03-24 19:27:00,65.6,52.6,29.91,WSW,248,0.0,5.0,63,0.00,,,0.00,0,HR-IXP-WINDi_r2_v1.2,2013-03-25 02:27:00,
2013-03-24 19:32:00,65.2,52.7,29.91,WSW,254,3.0,4.0,64,0.00,,,0.00,0,HR-IXP-WINDi_r2_v1.2,2013-03-25 02:32:00,
2013-03-24 19:38:00,65.0,52.9,29.91,WSW,257,3.0,4.0,65,0.00,,,0.00,0,HR-IXP-WINDi_r2_v1.2,2013-03-25 02:38:00,
2013-03-24 19:43:00,64.7,52.6,29.91,WSW,257,1.0,4.0,65,0.00,,,0.00,0,HR-IXP-WINDi_r2_v1.2,2013-03-25 02:43:00,
2013-03-24 19:48:00,64.5,52.8,29.92,WSW,257,1.0,4.0,66,0.00,,,0.00,0,HR-IXP-WINDi_r2_v1.2,2013-03-25 02:48:00,
2013-03-24 19:53:00,64.3,53.1,29.92,West,261,2.0,3.0,67,0.00,,,0.00,0,HR-IXP-WINDi_r2_v1.2,2013-03-25 02:53:00,
2013-03-24 19:58:00,64.0,53.2,29.92,West,268,1.0,4.0,68,0.00,,,0.00,0,HR-IXP-WINDi_r2_v1.2,2013-03-25 02:58:00,
2013-03-24 20:04:00,63.8,53.0,29.92,West,268,1.0,4.0,68,0.00,,,0.00,0,HR-IXP-WINDi_r2_v1.2,2013-03-25 03:04:00,
2013-03-24 20:09:00,63.6,53.2,29.92,West,268,2.0,3.0,69,0.00,,,0.00,0,HR-IXP-WINDi_r2_v1.2,2013-03-25 03:09:00,
2013-03-24 20:14:00,63.4,53.0,29.92,West,268,1.0,3.0,69,0.00,,,0.00,0,HR-IXP-WINDi_r2_v1.2,2013-03-25 03:14:00,
2013-03-24 20:19:00,63.3,53.3,29.92,West,268,0.0,2.0,70,0.00,,,0.00,0,HR-IXP-WINDi_r2_v1.2,2013-03-25 03:19:00,
2013-03-24 20:24:00,63.2,53.2,29.93,West,268,1.0,2.0,70,0.00,,,0.00,0,HR-IXP-WINDi_r2_v1.2,2013-03-25 03:24:00,
2013-03-24 20:30:00,63.0,53.4,29.93,West,268,1.0,2.0,71,0.00,,,0.00,0,HR-IXP-WINDi_r2_v1.2,2013-03-25 03:30:00,
2013-03-24 20:35:00,62.9,53.7,29.93,West,268,0.0,2.0,72,0.00,,,0.00,0,HR-IXP-WINDi_r2_v1.2,2013-03-25 03:35:00,
2013-03-24 20:40:00,62.6,53.4,29.93,West,268,1.0,3.0,72,0.00,,,0.00,0,HR-IXP-WINDi_r2_v1.2,2013-03-25 03:40:00,
2013-03-24 20:45:00,62.4,53.2,29.93,West,268,1.0,3.0,72,0.00,,,0.00,0,HR-IXP-WINDi_r2_v1.2,2013-03-25 03:45:00,
2013-03-24 20:50:00,62.2,53.4,29.93,West,268,1.0,3.0,73,0.00,,,0.00,0,HR-IXP-WINDi_r2_v1.2,2013-03-25 03:50:00,
2013-03-24 20:55:00,62.2,53.4,29.93,West,268,1.0,3.0,73,0.00,,,0.00,0,HR-IXP-WINDi_r2_v1.2,2013-03-25 03:55:00,
2013-03-24 21:00:00,62.1,53.3,29.93,West,268,0.0,3.0,73,0.00,,,0.00,0,HR-IXP-WINDi_r2_v1.2,2013-03-25 04:00:00,
2013-03-24 21:05:00,62.0,53.6,29.93,West,268,0.0,2.0,74,0.00,,,0.00,0,HR-IXP-WINDi_r2_v1.2,2013-03-25 04:05:00,
2013-03-24 21:10:00,61.9,53.5,29.93,West,268,0.0,1.0,74,0.00,,,0.00,0,HR-IXP-WINDi_r2_v1.2,2013-03-25 04:10:00,
2013-03-24 21:15:00,61.8,53.4,29.94,West,268,0.0,1.0,74,0.00,,,0.00,0,HR-IXP-WINDi_r2_v1.2,2013-03-25 04:15:00,
2013-03-24 21:20:00,61.6,53.5,29.94,West,268,0.0,1.0,75,0.00,,,0.00,0,HR-IXP-WINDi_r2_v1.2,2013-03-25 04:20:00,
2013-03-24 21:25:00,61.5,53.4,29.94,West,268,1.0,2.0,75,0.00,,,0.00,0,HR-IXP-WINDi_r2_v1.2,2013-03-25 04:25:00,
2013-03-24 21:31:00,61.3,53.2,29.94,West,268,0.0,2.0,75,0.00,,,0.00,0,HR-IXP-WINDi_r2_v1.2,2013-03-25 04:31:00,
2013-03-24 21:36:00,61.2,53.5,29.94,West,268,0.0,1.0,76,0.00,,,0.00,0,HR-IXP-WINDi_r2_v1.2,2013-03-25 04:36:00,
2013-03-24 21:41:00,61.2,53.5,29.95,West,268,0.0,1.0,76,0.00,,,0.00,0,HR-IXP-WINDi_r2_v1.2,2013-03-25 04:41:00,
2013-03-24 21:47:00,61.0,53.3,29.95,West,268,1.0,1.0,76,0.00,,,0.00,0,HR-IXP-WINDi_r2_v1.2,2013-03-25 04:47:00,
2013-03-24 21:52:00,60.7,53.4,29.95,West,268,0.0,1.0,77,0.00,,,0.00,0,HR-IXP-WINDi_r2_v1.2,2013-03-25 04:52:00,
2013-03-24 21:57:00,60.5,53.2,29.95,West,268,0.0,2.0,77,0.00,,,0.00,0,HR-IXP-WINDi_r2_v1.2,2013-03-25 04:57:00,
2013-03-24 22:02:00,60.4,53.1,29.95,West,268,0.0,2.0,77,0.00,,,0.00,0,HR-IXP-WINDi_r2_v1.2,2013-03-25 05:02:00,
2013-03-24 22:08:00,60.4,53.4,29.95,West,268,1.0,1.0,78,0.00,,,0.00,0,HR-IXP-WINDi_r2_v1.2,2013-03-25 05:08:00,
2013-03-24 22:13:00,60.2,53.6,29.95,West,268,0.0,2.0,79,0.00,,,0.00,0,HR-IXP-WINDi_r2_v1.2,2013-03-25 05:13:00,
2013-03-24 22:18:00,60.1,54.5,29.95,West,268,0.0,2.0,82,0.00,,,0.00,0,HR-IXP-WINDi_r2_v1.2,2013-03-25 05:18:00,
2013-03-24 22:23:00,59.8,54.6,29.96,West,268,0.0,1.0,83,0.00,,,0.00,0,HR-IXP-WINDi_r2_v1.2,2013-03-25 05:23:00,
2013-03-24 22:29:00,59.6,54.7,29.96,West,268,0.0,1.0,84,0.00,,,0.00,0,HR-IXP-WINDi_r2_v1.2,2013-03-25 05:29:00,
2013-03-24 22:34:00,59.3,54.7,29.96,West,268,1.0,1.0,85,0.00,,,0.00,0,HR-IXP-WINDi_r2_v1.2,2013-03-25 05:34:00,
2013-03-24 22:39:00,59.2,54.9,29.96,West,268,1.0,2.0,86,0.00,,,0.00,0,HR-IXP-WINDi_r2_v1.2,2013-03-25 05:39:00,
2013-03-24 22:44:00,58.9,55.0,29.96,West,268,1.0,2.0,87,0.00,,,0.00,0,HR-IXP-WINDi_r2_v1.2,2013-03-25 05:44:00,
2013-03-24 22:50:00,58.7,54.8,29.96,West,268,0.0,2.0,87,0.00,,,0.00,0,HR-IXP-WINDi_r2_v1.2,2013-03-25 05:50:00,
2013-03-24 22:55:00,58.6,55.0,29.96,West,268,0.0,2.0,88,0.00,,,0.00,0,HR-IXP-WINDi_r2_v1.2,2013-03-25 05:55:00,
2013-03-24 23:00:00,58.6,55.0,29.96,West,268,0.0,2.0,88,0.00,,,0.00,0,HR-IXP-WINDi_r2_v1.2,2013-03-25 06:00:00,
2013-03-24 23:05:00,58.5,55.2,29.96,West,268,0.0,2.0,89,0.00,,,0.00,0,HR-IXP-WINDi_r2_v1.2,2013-03-25 06:05:00,
2013-03-24 23:11:00,58.6,55.3,29.96,West,268,0.0,2.0,89,0.00,,,0.00,0,HR-IXP-WINDi_r2_v1.2,2013-03-25 06:11:00,
2013-03-24 23:16:00,58.4,55.1,29.96,West,268,0.0,2.0,89,0.00,,,0.00,0,HR-IXP-WINDi_r2_v1.2,2013-03-25 06:16:00,
2013-03-24 23:21:00,58.3,55.3,29.96,West,259,0.0,2.0,90,0.00,,,0.00,0,HR-IXP-WINDi_r2_v1.2,2013-03-25 06:21:00,
2013-03-24 23:26:00,58.2,55.2,29.96,West,259,0.0,2.0,90,0.00,,,0.00,0,HR-IXP-WINDi_r2_v1.2,2013-03-25 06:26:00,
2013-03-24 23:31:00,58.4,55.4,29.96,West,259,0.0,2.0,90,0.00,,,0.00,0,HR-IXP-WINDi_r2_v1.2,2013-03-25 06:31:00,
2013-03-24 23:37:00,58.4,55.4,29.96,West,259,0.0,2.0,90,0.00,,,0.00,0,HR-IXP-WINDi_r2_v1.2,2013-03-25 06:37:00,
2013-03-24 23:42:00,58.3,55.6,29.96,West,259,0.0,3.0,91,0.00,,,0.00,0,HR-IXP-WINDi_r2_v1.2,2013-03-25 06:42:00,
2013-03-24 23:47:00,58.2,55.5,29.96,West,259,0.0,3.0,91,0.00,,,0.00,0,HR-IXP-WINDi_r2_v1.2,2013-03-25 06:47:00,
2013-03-24 23:52:00,57.8,55.1,29.96,West,259,1.0,2.0,91,0.00,,,0.00,0,HR-IXP-WINDi_r2_v1.2,2013-03-25 06:52:00,
2013-03-24 23:57:00,57.7,55.0,29.96,West,259,0.0,2.0,91,0.00,,,0.00,0,HR-IXP-WINDi_r2_v1.2,2013-03-25 06:57:00,